College Station, TX

4:58 AM CDT on June 24, 2018 (GMT -0500)
Easterwood

Weather History for KCLL - September, 2017

Change the Weather History Date:

Thursday, September 14, 2017

  Actual Average Record
Temperature  
Mean Temperature 80 °F 80 °F  
Max Temperature 91 °F 91 °F 101 °F (1912)
Min Temperature 69 °F 70 °F 56 °F (1940)
Degree Days  
Heating Degree Days 0 0  
Month to date heating degree days 0  
Since 1 July heating degree days 0  
Cooling Degree Days 15 16  
Month to date cooling degree days 242  
Year to date cooling degree days 2588  
Growing Degree Days 30 (Base 50)    
Moisture  
Dew Point 69 °F    
Average Humidity 72    
Maximum Humidity 93    
Minimum Humidity 47    
Precipitation  
Precipitation 0.00 in 0.10 in 3.05 in (1981)
Month to date precipitation 1.55  
Year to date precipitation 27.07  
Sea Level Pressure  
Sea Level Pressure 29.84 in    
Wind  
Wind Speed 8 mph (SSE)    
Max Wind Speed 15 mph    
Max Gust Speed 21 mph    
Visibility 10 miles    
Events      
T = Trace of Precipitation, MM = Missing Value Source: NWS Daily Summary

Daily Weather History Graph

Daily Weather History Graph

Search for Another Location

Airport or City:

Astronomy

Sep. 14, 2017 Rise Set
Actual Time 7:09 AM CDT 7:31 PM CDT
Civil Twilight 6:45 AM CDT 7:55 PM CDT
Nautical Twilight 6:17 AM CDT 8:24 PM CDT
Astronomical Twilight 5:48 AM CDT 8:52 PM CDT
Moon 1:24 AM CDT (9/14) 3:32 PM CDT (9/14)
Length of Visible Light 13h 10m
Length of Day
12h 22m
Waning Crescent, 34% of the Moon is Illuminated
Sep 14
Waning Crescent
Sep 20
New
Sep 27
First Quarter
Oct 5
Full
Oct 12
Last Quarter

Hourly Weather History & Observations

Time (CDT) Temp. Heat Index Dew Point Humidity Pressure Visibility Wind Dir Wind Speed Gust Speed Precip Events Conditions
12:53 AM 73.9 °F - 68.0 °F 82% 29.81 in 10.0 mi SSE 8.1 mph - N/A   Clear
1:53 AM 72.0 °F - 69.1 °F 91% 29.81 in 10.0 mi SSE 5.8 mph - N/A   Clear
2:53 AM 71.1 °F - 68.0 °F 90% 29.82 in 9.0 mi SSE 6.9 mph - N/A   Clear
3:53 AM 71.1 °F - 68.0 °F 90% 29.83 in 9.0 mi SSE 4.6 mph - N/A   Clear
4:53 AM 70.0 °F - 66.9 °F 90% 29.83 in 9.0 mi SSE 4.6 mph - N/A   Clear
5:53 AM 69.1 °F - 66.9 °F 93% 29.84 in 8.0 mi SE 3.5 mph - N/A   Clear
6:53 AM 69.1 °F - 66.9 °F 93% 29.85 in 8.0 mi ESE 4.6 mph - N/A   Clear
7:53 AM 70.0 °F - 68.0 °F 93% 29.87 in 5.0 mi SSE 4.6 mph - N/A   Clear
8:53 AM 73.0 °F - 70.0 °F 90% 29.88 in 10.0 mi South 8.1 mph - N/A   Partly Cloudy
9:53 AM 79.0 °F - 72.0 °F 79% 29.88 in 10.0 mi South 10.4 mph - N/A   Clear
10:53 AM 82.0 °F 86.7 °F 72.0 °F 71% 29.88 in 10.0 mi South 9.2 mph - N/A   Partly Cloudy
11:53 AM 84.9 °F 90.1 °F 71.1 °F 63% 29.88 in 10.0 mi South 10.4 mph - N/A   Clear
12:53 PM 87.1 °F 93.6 °F 72.0 °F 61% 29.86 in 10.0 mi SE 9.2 mph - N/A   Partly Cloudy
1:53 PM 90.0 °F 93.6 °F 68.0 °F 48% 29.85 in 10.0 mi SSE 9.2 mph - N/A   Clear
2:53 PM 91.0 °F 95.2 °F 68.0 °F 47% 29.83 in 10.0 mi SSE 12.7 mph 20.7 mph N/A   Clear
3:53 PM 91.0 °F 95.6 °F 69.1 °F 48% 29.81 in 10.0 mi SSE 11.5 mph 18.4 mph N/A   Clear
4:53 PM 91.0 °F 95.2 °F 68.0 °F 47% 29.80 in 10.0 mi SSE 15.0 mph 19.6 mph N/A   Clear
5:53 PM 90.0 °F 93.6 °F 68.0 °F 48% 29.81 in 10.0 mi SSE 13.8 mph 18.4 mph N/A   Clear
6:53 PM 87.1 °F 90.6 °F 68.0 °F 53% 29.81 in 10.0 mi SSE 8.1 mph - N/A   Clear
7:53 PM 82.0 °F 85.5 °F 69.1 °F 65% 29.81 in 10.0 mi SE 5.8 mph - N/A   Clear
8:53 PM 82.0 °F 84.9 °F 68.0 °F 62% 29.83 in 10.0 mi ESE 12.7 mph - N/A   Clear
9:53 PM 79.0 °F - 70.0 °F 74% 29.86 in 10.0 mi SE 11.5 mph - N/A   Clear
10:53 PM 79.0 °F - 70.0 °F 74% 29.87 in 10.0 mi SSE 10.4 mph - N/A   Clear
11:53 PM 77.0 °F - 70.0 °F 79% 29.87 in 10.0 mi SSE 11.5 mph - N/A   Clear